Temperature
7 6 6 6 6 8 7 7 7 6 6 5 5 5 5 4 4 4 4 4 5 5 6 5 5 5 5 5 5 5 4 4 4 4 4 4 4 4 4 3 3 3 3 3
6 5 6 6 6 7 7 7 6 6 6 5 5 4 4 4 3 4 4 4 4 5 5 5 5 5 5 5 4 4 4 4 4 4 4 4 3 3 3 3 3 3 3 3
6 6 6 6 6 6 6 6 6 6 5 5 5 5 5 4 3 4 4 4 4 4 5 5 5 5 4 4 4 4 4 4 4 3 3 3 3 3 3 3 2 2 2 2
5 5 6 6 6 6 6 6 6 5 5 4 5 5 5 4 3 3 3 3 4 4 5 5 4 4 4 4 4 4 3 3 3 3 3 3 3 2 2 2 2 2 2 1
5 5 5 6 6 6 5 5 5 5 4 4 4 4 5 4 4 4 3 3 4 4 4 4 4 4 4 4 4 3 3 3 2 2 2 2 2 2 1 1 1 1 1 1
4 5 5 5 5 5 4 4 4 3 3 5 4 4 5 3 4 4 3 3 4 4 4 4 4 4 3 3 3 3 3 2 2 2 2 2 1 1 1 1 1 1 1 1
5 5 4 5 5 5 5 5 5 5 4 5 3 3 4 4 3 3 3 3 3 4 3 3 3 3 3 3 2 2 2 2 2 1 1 1 1 1 1 1 0 0 0 0
5 5 4 4 4 4 4 5 6 6 5 4 3 2 3 2 2 2 2 3 3 3 3 3 3 3 3 2 2 2 1 1 1 1 1 0 0 0 -0 -0 -0 -1 -1 -1
4 5 4 4 4 4 4 3 4 3 3 3 3 2 2 2 2 1 1 1 2 2 3 3 2 2 2 2 2 1 1 1 1 0 0 -0 -0 -0 -1 -1 -1 -1 -1 -1
4 4 4 3 4 3 3 3 2 3 4 4 4 3 3 3 2 1 0 0 1 2 2 2 2 2 2 1 1 1 1 0 0 -0 -0 -1 -1 -1 -1 -1 -2 -2 -2 -2
3 3 3 3 3 3 2 3 2 2 3 3 3 4 2 2 1 1 0 0 1 1 1 1 1 1 1 1 0 0 0 -0 -0 -1 -1 -1 -1 -2 -2 -2 -2 -2 -3 -3
2 2 2 3 2 2 2 2 2 3 2 1 2 3 2 0 0 -0 -0 0 1 1 1 1 1 0 0 0 -0 -0 -0 -1 -1 -1 -1 -2 -2 -2 -2 -2 -3 -3 -3 -3
2 2 3 4 3 1 1 1 1 1 1 0 1 3 1 -1 -1 -0 -1 -0 -0 0 0 0 -0 -0 -0 -0 -1 -1 -1 -1 -2 -2 -2 -2 -2 -3 -3 -3 -3 -4 -4 -4
2 1 2 4 4 2 1 1 1 1 1 1 1 2 2 0 -1 -1 -1 -1 -1 -1 -1 -1 -1 -1 -1 -1 -1 -1 -2 -2 -2 -2 -3 -3 -3 -3 -3 -4 -4 -4 -4 -4
1 1 1 1 1 1 1 1 0 1 1 1 2 1 1 0 -0 -1 -1 -1 -1 -2 -1 -1 -1 -1 -2 -2 -2 -2 -2 -3 -3 -3 -3 -3 -3 -4 -4 -4 -4 -5 -5 -5
-0 0 0 0 0 0 0 0 0 0 0 0 0 0 -0 -1 -1 -1 -2 -2 -2 -2 -2 -2 -2 -2 -2 -2 -3 -3 -3 -3 -3 -4 -4 -4 -4 -4 -5 -5 -5 -5 -5 -6
-1 -1 -0 0 -0 0 0 -0 -0 -1 -1 -1 -0 -0 -2 -3 -3 -2 -2 -2 -2 -2 -2 -2 -2 -3 -3 -3 -3 -3 -4 -4 -4 -4 -4 -5 -5 -5 -5 -5 -6 -6 -6 -6
-2 -1 -1 -1 -0 0 1 -1 -1 -1 -2 -3 -2 -3 -3 -3 -3 -2 -2 -2 -3 -2 -2 -3 -3 -3 -3 -4 -4 -4 -4 -4 -5 -5 -5 -5 -6 -6 -6 -6 -6 -6 -7 -7
-2 -2 -2 -2 -1 -1 -1 -2 -3 -2 -2 -3 -3 -4 -4 -4 -4 -3 -2 -3 -3 -3 -3 -3 -3 -4 -4 -4 -4 -5 -5 -5 -5 -5 -6 -6 -6 -6 -6 -7 -7 -7 -7 -7
-3 -3 -2 -2 -1 -0 -0 -3 -3 -2 -2 -3 -4 -5 -5 -4 -4 -4 -3 -3 -3 -4 -4 -4 -4 -4 -4 -5 -5 -5 -5 -5 -6 -6 -6 -7 -7 -7 -7 -7 -7 -8 -8 -8
-3 -4 -3 -3 -2 -2 -3 -4 -3 -1 -1 -3 -4 -4 -5 -5 -4 -4 -4 -4 -4 -4 -5 -5 -5 -5 -5 -5 -5 -5 -6 -6 -6 -7 -7 -7 -7 -8 -8 -8 -8 -8 -8 -9
-4 -4 -4 -4 -3 -2 -4 -5 -4 -3 -3 -3 -4 -4 -4 -5 -5 -5 -5 -5 -5 -5 -6 -5 -5 -6 -6 -6 -6 -6 -6 -7 -7 -7 -8 -8 -8 -8 -8 -9 -9 -9 -9 -9
-5 -5 -4 -4 -3 -4 -5 -4 -4 -3 -4 -4 -4 -4 -4 -5 -6 -6 -6 -6 -6 -6 -6 -6 -6 -6 -6 -6 -6 -6 -7 -7 -8 -8 -8 -8 -9 -9 -9 -9 -9 -9 -10 -10
-6 -6 -6 -6 -6 -5 -5 -5 -4 -4 -4 -4 -4 -4 -5 -6 -6 -6 -7 -7 -7 -7 -7 -7 -7 -7 -7 -7 -7 -7 -7 -8 -8 -8 -8 -9 -9 -9 -9 -10 -10 -10 -10 -10
-6 -7 -7 -6 -6 -6 -5 -5 -5 -5 -5 -5 -5 -5 -5 -6 -6 -7 -7 -7 -7 -7 -7 -7 -8 -8 -8 -8 -8 -8 -8 -8 -9 -9 -9 -9 -10 -10 -10 -10 -10 -10 -11 -11
-8 -8 -7 -5 -6 -7 -6 -5 -5 -5 -6 -6 -6 -6 -6 -6 -7 -7 -7 -8 -8 -8 -8 -8 -8 -8 -8 -9 -9 -9 -9 -9 -9 -9 -10 -10 -10 -10 -10 -10 -11 -11 -11 -11
Wind_Speed
1 3 6 9 9 5 5 5 5 4 2 4 8 10 9 7 7 8 9 9 9 9 6 7 8 8 7 7 7 7 6 6 5 4 3 3 2 2 4 5 6 7 7 7
2 5 7 5 4 4 4 4 5 3 1 3 5 9 8 8 9 9 10 10 10 8 6 7 8 8 8 8 8 7 7 7 6 4 3 2 2 2 2 4 6 7 6 6
7 3 3 5 4 4 5 7 6 4 2 1 3 7 5 4 5 6 7 8 8 10 10 9 9 9 9 9 9 7 7 7 6 5 5 4 3 2 2 2 3 5 6 6
3 2 2 4 5 6 6 5 5 4 1 3 1 5 5 4 4 7 8 8 9 9 9 9 10 10 10 9 8 7 7 6 6 6 6 6 3 2 1 1 1 3 5 5
3 2 3 5 5 6 4 2 3 3 4 2 2 3 7 1 5 7 8 9 9 9 9 10 10 10 8 8 7 7 7 7 6 5 6 6 4 2 2 1 1 2 3 4
3 1 3 4 1 3 5 5 4 3 3 4 6 6 6 4 6 5 5 6 7 7 8 7 6 6 6 6 6 7 7 6 6 5 5 6 5 4 3 2 1 1 1 3
2 2 1 2 3 2 4 4 1 1 1 6 4 4 8 5 4 5 5 5 5 6 7 7 8 8 7 7 7 7 7 6 6 6 5 5 5 5 5 3 2 1 1 1
2 4 3 2 4 5 5 6 5 5 5 3 1 6 6 4 3 3 2 2 3 5 6 7 7 7 7 8 7 7 7 7 6 6 5 4 4 4 2 2 2 1 1 1
3 4 0 1 1 5 5 4 3 4 1 2 5 5 6 3 3 2 1 1 2 4 5 6 6 6 6 7 7 7 7 6 6 6 5 4 4 4 3 2 2 1 0 0
2 2 1 0 2 1 2 6 4 4 3 4 5 4 4 5 4 2 1 1 2 3 4 4 5 5 5 5 5 5 6 6 6 5 5 4 4 3 3 3 2 1 0 0
1 2 1 1 5 6 4 3 4 3 3 4 4 6 4 5 4 3 3 2 2 3 4 4 4 4 5 5 5 5 5 5 4 5 4 4 3 3 3 2 2 1 1 0
1 2 3 4 2 2 4 5 6 5 4 4 3 6 3 3 2 2 1 0 2 3 3 4 4 4 4 4 4 4 4 4 4 4 4 4 3 3 3 2 2 1 1 1
2 2 1 3 1 1 1 2 3 3 3 4 5 6 1 1 1 1 1 1 2 3 3 4 4 4 4 3 3 3 4 3 3 4 4 4 3 3 3 2 2 1 1 1
1 3 5 6 4 3 3 3 5 5 4 5 8 8 6 3 2 1 0 1 2 2 3 3 3 3 3 3 3 3 3 3 3 3 4 4 3 3 3 2 2 1 1 1
1 2 3 4 3 2 3 5 6 8 8 8 8 8 10 6 4 3 2 2 3 2 2 3 2 2 3 3 2 2 2 2 3 3 3 3 2 2 2 2 1 1 1 1
1 2 1 4 3 2 4 7 8 9 7 8 8 9 6 2 0 1 2 3 3 2 2 2 2 2 2 2 2 2 2 2 2 3 2 2 2 2 1 1 1 0 1 1
1 2 1 4 3 3 6 7 8 5 5 5 8 7 1 0 2 3 3 4 4 3 2 2 2 2 2 2 2 3 2 2 3 2 2 2 2 1 1 1 0 1 1 2
3 2 2 1 2 6 5 1 3 4 3 4 4 3 2 3 2 1 1 3 2 2 2 2 2 2 2 2 2 2 3 3 3 2 1 1 1 1 0 0 0 1 1 2
3 3 2 2 3 6 5 2 1 3 4 3 5 4 2 1 3 3 2 1 2 2 2 2 2 3 3 3 3 4 3 3 3 2 1 0 1 1 0 0 1 1 1 2
3 2 2 2 3 5 5 2 1 2 4 3 3 4 2 1 0 3 2 2 2 2 3 3 3 4 3 2 3 4 3 3 1 0 0 0 1 0 0 1 1 1 1 2
1 1 2 3 4 6 4 3 1 2 5 2 2 3 3 3 4 1 2 3 3 3 3 4 4 3 2 2 4 4 3 1 1 0 1 1 1 0 0 1 1 1 2 2
4 3 3 3 4 7 2 2 3 4 2 1 0 1 2 2 1 2 2 3 3 3 3 4 4 3 2 3 4 3 1 0 1 1 1 1 1 1 1 1 2 2 1 2
4 5 4 5 5 2 1 2 2 1 2 1 0 0 3 3 2 2 2 2 3 3 3 3 4 3 3 2 3 2 0 1 2 2 1 1 1 1 2 1 2 2 2 2
2 1 2 3 5 5 3 3 3 2 2 2 0 1 2 2 2 2 2 2 2 2 2 3 3 3 2 2 2 1 0 1 2 1 0 1 1 2 2 2 2 2 2 3
3 2 2 4 5 4 4 3 4 3 2 2 2 1 2 3 2 2 2 2 2 2 2 2 2 2 1 1 1 1 1 1 1 0 1 1 1 2 2 2 2 3 3 4
1 2 3 6 4 3 4 4 3 2 2 1 2 2 2 2 2 2 2 2 2 2 2 2 2 1 1 1 2 2 1 1 1 1 1 1 2 2 2 3 4 5 6 8
Wind_Direction
95 123 202 211 208 207 184 195 230 245 197 193 228 250 251 218 210 218 215 207 206 209 197 175 171 165 160 159 156 153 149 149 138 129 122 108 90 71 53 53 53 50 46 43
86 226 229 206 200 203 201 217 246 276 192 209 255 264 253 218 213 213 214 213 209 201 186 179 172 168 171 171 167 161 160 160 153 145 135 121 120 96 68 56 51 45 44 44
188 218 194 173 180 193 218 212 222 234 341 329 309 287 247 231 208 215 216 212 206 201 196 185 180 180 177 177 174 171 168 163 153 139 121 107 86 73 60 52 37 36 43 45
211 247 174 176 198 191 234 214 202 202 208 278 207 281 271 232 235 228 226 217 214 208 196 187 184 184 183 180 171 165 162 155 149 142 142 140 140 140 164 133 55 32 42 44
227 196 182 201 211 190 203 135 162 179 178 266 221 231 280 281 250 241 230 219 216 206 193 190 188 183 176 167 163 160 154 151 147 148 151 144 134 132 120 90 70 34 33 38
222 203 197 201 193 177 136 88 74 76 109 247 207 193 273 234 231 249 239 219 211 199 189 184 170 157 156 156 156 155 153 153 148 151 150 150 149 146 139 126 111 36 22 26
278 224 213 149 124 108 121 114 48 331 259 247 171 197 249 250 243 246 251 239 214 188 175 169 164 165 165 163 162 159 156 158 156 156 158 160 160 160 164 165 162 146 14 0
231 261 212 185 177 180 180 165 173 211 228 270 191 230 254 267 283 274 253 225 185 174 168 170 171 170 170 168 164 161 163 165 162 163 166 157 155 157 162 160 155 170 215 277
204 247 71 173 158 149 155 190 162 137 134 268 260 273 295 287 322 349 1 129 176 170 163 166 164 164 165 167 169 167 167 165 167 169 162 156 155 153 154 148 137 154 206 308
173 255 257 229 97 52 154 149 118 150 194 252 276 267 261 281 287 315 325 216 189 150 150 154 155 155 157 160 155 156 162 166 168 165 165 163 157 156 149 141 153 161 184 261
154 204 294 124 196 191 151 154 151 153 175 188 257 268 236 237 235 232 245 228 185 158 152 148 146 141 139 137 143 150 155 155 159 165 160 154 153 148 142 156 171 178 213 241
154 153 250 244 241 190 185 185 162 176 215 194 206 266 291 247 242 208 238 209 128 133 137 135 131 123 124 133 140 151 155 159 168 167 158 159 152 149 156 169 176 182 208 253
139 135 313 328 349 19 238 218 182 146 137 175 197 257 332 23 53 109 157 141 120 117 116 116 118 124 132 135 139 152 155 158 160 157 155 156 157 165 177 183 182 190 212 266
149 176 202 227 250 191 223 219 182 162 190 213 224 248 280 294 294 297 183 142 121 113 114 116 121 133 141 137 139 145 150 149 149 150 158 169 179 185 189 184 182 199 218 236
98 218 232 262 272 218 234 232 200 202 208 217 235 235 261 256 247 234 185 145 126 121 122 132 141 145 138 131 133 137 140 143 149 152 161 179 179 173 170 170 179 207 254 271
82 224 268 281 273 258 282 263 228 227 227 231 250 264 270 279 216 185 184 173 175 178 163 146 139 135 141 149 150 138 135 139 138 149 162 157 147 153 167 181 177 213 272 284
197 169 215 270 306 329 277 249 216 209 207 198 231 244 227 241 233 214 201 190 193 191 173 164 162 156 149 151 150 147 142 126 126 133 133 137 142 153 181 192 165 254 274 285
180 165 181 268 20 246 251 347 189 194 231 217 233 256 245 235 246 269 197 189 202 188 171 163 148 133 114 108 110 108 106 111 116 110 103 120 130 136 168 169 223 275 280 285
187 167 170 175 236 273 294 286 174 196 273 249 228 248 269 351 33 349 360 124 189 178 158 150 139 129 113 105 108 104 95 94 97 99 93 81 135 149 185 249 278 287 295 299
56 109 153 170 213 250 274 303 292 135 290 291 201 221 227 105 308 280 353 70 83 92 107 110 104 100 99 98 107 108 103 95 92 93 73 42 60 114 241 259 280 301 295 290
77 98 185 208 231 265 287 312 83 162 269 311 198 206 185 193 220 222 72 77 95 97 104 106 105 102 102 105 109 107 104 114 155 85 61 51 41 7 285 321 325 317 312 313
178 176 198 180 213 258 314 106 172 233 309 336 262 196 163 160 123 100 91 96 102 97 96 103 103 91 77 92 110 107 105 130 87 80 66 40 15 357 5 358 327 325 315 315
199 199 200 198 219 284 181 205 259 293 299 305 299 146 140 138 147 127 111 105 103 102 98 99 106 92 64 72 110 124 172 74 94 85 60 14 2 356 348 325 310 319 315 301
267 266 210 248 270 275 277 293 314 322 299 313 223 146 139 145 149 129 121 101 97 94 93 91 95 90 56 44 71 123 70 82 100 98 15 348 345 335 331 316 300 292 287 286
248 199 238 262 283 304 301 299 306 326 357 13 20 58 132 140 148 144 130 108 101 89 77 88 95 95 52 30 30 22 44 87 96 80 308 317 312 300 305 302 281 279 262 266
227 202 219 255 266 258 289 330 345 348 350 13 49 41 56 122 142 125 123 112 104 93 78 73 74 63 18 11 351 346 359 112 155 274 293 291 288 291 293 295 303 301 298 302
Height
1478 1484 1486 1485 1486 1486 1488 1491 1493 1492 1491 1494 1493 1491 1488 1488 1490 1490 1491 1492 1493 1495 1499 1501 1504 1506 1509 1512 1514 1515 1517 1519 1520 1522 1522 1523 1524 1525 1526 1526 1526 1526 1526 1526
1482 1484 1482 1483 1485 1486 1488 1490 1492 1492 1492 1493 1493 1489 1485 1484 1485 1485 1486 1488 1489 1492 1495 1497 1499 1502 1505 1508 1510 1512 1514 1516 1518 1519 1520 1522 1522 1523 1524 1524 1524 1524 1524 1524
1479 1481 1480 1482 1485 1486 1487 1489 1490 1492 1493 1493 1494 1486 1482 1480 1481 1481 1483 1484 1485 1487 1489 1492 1495 1498 1501 1504 1506 1509 1511 1513 1515 1517 1518 1519 1520 1521 1522 1522 1522 1522 1523 1523
1480 1479 1479 1481 1483 1484 1485 1486 1488 1491 1495 1497 1496 1492 1479 1479 1479 1478 1478 1479 1480 1483 1485 1488 1491 1494 1497 1500 1503 1506 1508 1511 1512 1514 1515 1516 1517 1518 1519 1520 1520 1521 1521 1521
1479 1478 1479 1479 1480 1482 1484 1485 1488 1490 1494 1499 1498 1497 1481 1479 1477 1474 1474 1475 1476 1479 1481 1484 1487 1490 1494 1497 1500 1503 1505 1507 1509 1511 1513 1514 1515 1516 1517 1518 1518 1518 1519 1519
1477 1477 1478 1478 1479 1480 1483 1487 1491 1494 1497 1496 1493 1496 1483 1479 1473 1470 1470 1471 1472 1475 1478 1481 1485 1488 1491 1494 1497 1500 1502 1504 1507 1508 1510 1512 1513 1514 1514 1515 1515 1516 1516 1516
1477 1477 1477 1477 1480 1482 1483 1488 1491 1491 1496 1490 1492 1492 1482 1472 1470 1469 1468 1469 1470 1473 1476 1479 1481 1484 1488 1491 1494 1497 1499 1501 1504 1506 1507 1509 1510 1511 1512 1512 1513 1513 1513 1513
1478 1478 1477 1477 1478 1481 1482 1482 1487 1489 1490 1491 1494 1492 1477 1470 1468 1467 1467 1467 1468 1471 1473 1476 1479 1482 1485 1488 1491 1494 1496 1498 1501 1503 1505 1506 1508 1509 1509 1510 1510 1511 1511 1511
1478 1477 1477 1476 1476 1478 1482 1485 1484 1491 1496 1498 1491 1486 1476 1467 1466 1466 1466 1466 1467 1469 1472 1475 1478 1481 1483 1486 1488 1491 1493 1496 1498 1500 1502 1503 1505 1506 1507 1507 1508 1508 1508 1508
1477 1479 1477 1478 1478 1479 1480 1483 1489 1490 1488 1488 1484 1484 1478 1469 1467 1467 1467 1466 1467 1469 1471 1474 1476 1479 1482 1484 1486 1489 1491 1493 1495 1497 1499 1500 1502 1503 1504 1504 1505 1505 1505 1505
1477 1480 1479 1479 1479 1478 1482 1484 1484 1488 1488 1489 1488 1480 1471 1468 1466 1467 1466 1466 1467 1469 1471 1473 1475 1478 1480 1482 1484 1486 1488 1490 1492 1494 1496 1497 1499 1500 1501 1501 1502 1502 1502 1502
1477 1480 1481 1478 1477 1476 1478 1478 1481 1484 1487 1492 1492 1481 1467 1467 1465 1466 1466 1467 1468 1469 1470 1472 1474 1476 1478 1480 1482 1484 1486 1488 1490 1491 1493 1494 1496 1497 1498 1498 1499 1499 1499 1499
1478 1480 1479 1475 1479 1481 1480 1479 1480 1481 1486 1492 1490 1477 1467 1466 1466 1466 1466 1467 1468 1469 1470 1472 1473 1475 1477 1478 1480 1482 1483 1485 1487 1489 1490 1491 1493 1494 1494 1495 1495 1495 1495 1495
1475 1479 1479 1475 1471 1476 1479 1479 1479 1480 1484 1486 1481 1472 1466 1466 1466 1466 1466 1467 1467 1468 1469 1470 1472 1474 1475 1477 1478 1480 1481 1483 1484 1486 1487 1488 1489 1490 1491 1492 1492 1492 1492 1492
1476 1479 1478 1477 1475 1475 1475 1474 1476 1476 1474 1475 1470 1471 1464 1464 1465 1465 1466 1466 1467 1468 1469 1470 1471 1472 1474 1475 1477 1478 1479 1481 1482 1483 1484 1485 1486 1487 1488 1488 1488 1489 1489 1488
1477 1479 1479 1477 1474 1474 1474 1471 1472 1472 1472 1470 1468 1467 1463 1463 1463 1464 1464 1465 1466 1467 1468 1469 1470 1471 1472 1473 1475 1476 1477 1478 1480 1480 1481 1482 1483 1484 1484 1485 1485 1485 1485 1485
1479 1480 1479 1477 1476 1473 1472 1467 1467 1468 1467 1467 1466 1464 1463 1463 1462 1462 1463 1463 1464 1465 1466 1467 1468 1470 1471 1472 1473 1474 1475 1476 1477 1478 1479 1479 1480 1481 1481 1481 1481 1481 1481 1481
1478 1479 1480 1481 1478 1476 1465 1464 1463 1464 1465 1464 1462 1462 1461 1461 1461 1461 1461 1462 1462 1463 1464 1465 1467 1468 1470 1471 1472 1473 1474 1474 1475 1476 1477 1477 1478 1478 1478 1478 1478 1478 1478 1477
1475 1478 1481 1482 1481 1473 1466 1464 1465 1466 1464 1462 1462 1461 1460 1460 1460 1460 1460 1461 1462 1463 1463 1464 1466 1467 1468 1469 1470 1471 1472 1473 1473 1474 1474 1475 1475 1475 1475 1475 1475 1475 1474 1473
1477 1478 1482 1483 1478 1472 1464 1464 1463 1465 1464 1459 1459 1460 1460 1461 1463 1462 1460 1460 1461 1462 1463 1463 1464 1466 1467 1468 1469 1469 1470 1471 1471 1471 1472 1472 1472 1472 1472 1472 1471 1471 1471 1470
1481 1482 1483 1483 1480 1471 1467 1464 1463 1467 1463 1459 1458 1458 1459 1460 1460 1460 1459 1459 1460 1460 1461 1462 1463 1464 1465 1467 1467 1468 1468 1469 1469 1470 1470 1470 1470 1470 1469 1469 1468 1468 1467 1467
1479 1483 1484 1482 1481 1473 1466 1465 1466 1464 1460 1458 1457 1457 1457 1457 1457 1458 1458 1458 1459 1459 1460 1461 1462 1463 1464 1465 1466 1466 1466 1467 1467 1467 1467 1467 1467 1467 1467 1466 1465 1465 1464 1463
1478 1477 1475 1475 1472 1467 1464 1463 1462 1461 1459 1458 1457 1457 1456 1456 1456 1456 1457 1458 1458 1459 1460 1461 1461 1462 1463 1464 1465 1465 1465 1465 1465 1465 1465 1465 1465 1465 1464 1463 1462 1462 1461 1459
1475 1473 1473 1472 1467 1464 1462 1461 1460 1459 1458 1457 1456 1456 1455 1455 1455 1456 1456 1457 1458 1459 1459 1460 1460 1461 1462 1463 1463 1464 1464 1464 1464 1463 1463 1463 1462 1462 1461 1461 1460 1459 1457 1456
1472 1473 1472 1470 1465 1462 1459 1459 1458 1458 1457 1456 1455 1455 1454 1454 1454 1455 1455 1456 1457 1458 1458 1459 1460 1460 1461 1461 1462 1462 1462 1462 1462 1461 1461 1460 1460 1459 1459 1458 1457 1456 1454 1453
1470 1471 1471 1466 1462 1462 1459 1458 1457 1456 1455 1454 1454 1453 1454 1454 1454 1454 1455 1456 1456 1457 1458 1458 1459 1459 1459 1460 1460 1460 1460 1460 1459 1459 1458 1458 1457 1457 1456 1455 1454 1452 1451 1450